Location: College Rock
(37.2713°N, 119.1740°W)
Time: 03:04:03
(UTC+00:00)

Cosmos 1455 - Pass Details

Date: 29 October 2020
Orbit: 500 x 521 km, 82.5° (Epoch: 23 November)

Event Time Altitude Azimuth Distance (km) Brightness Sun altitude
Rises 13:32:04 0° 354° (N) 2,654 5.7 -9.9°
Reaches altitude 10° 13:34:13 10° 357° (N) 1,763 4.8 -9.5°
Maximum altitude 13:38:05 75° 83° (E) 544 2.4 -8.7°
Drops below altitude 10° 13:41:55 10° 169° (SSE) 1,748 5.2 -8.0°
Sets 13:44:03 0° 171° (S) 2,629 6.1 -7.5°
